User: anonymous   Login
Location: Newark
(39.9581°N, 97.2014°W)
Time: 06:30:25
(UTC+00:00)
Language:

Transit 4A - Orbit

View from above orbital plane
View from above orbital plane
View from above satellite
View from above satellite

Ground track
Ground track

The orbit data is extracted from the following two-line orbital elements,

1   116U 61015A   20054.63916567 -.00000044  00000-0  24890-4 0  9991
2   116  66.8098 128.8887 0068858  89.0826 271.8142 13.91766219976335
Epoch (UTC): 23 February 2020 15:20:23
Eccentricity: 0.0068858
inclination: 66.8098°
perigee height: 872 km
apogee height: 973 km
right ascension of ascending node: 128.8887°
argument of perigee: 89.0826°
revolutions per day: 13.91766219
mean anomaly at epoch: 271.8142°
orbit number at epoch: 97633

The dashed part of the orbit path shows where the satellite is in the earth's shadow,  

DLR